Jackson, MS

11:11 PM CDT on October 23, 2017 (GMT -0500)
Jackson-Evers International

Weather History for KJAN - February, 2012

Change the Weather History Date:

Sunday, February 26, 2012

  Actual Average Record
Temperature  
Mean Temperature 53 °F 52 °F  
Max Temperature 67 °F 63 °F 83 °F (1917)
Min Temperature 39 °F 41 °F 19 °F (1974)
Degree Days  
Heating Degree Days 12 13  
Month to date heating degree days 322 412  
Since 1 July heating degree days 1567 1964  
Cooling Degree Days 0 0  
Month to date cooling degree days 10 0  
Year to date cooling degree days 15 4  
Growing Degree Days 2 (Base 50)    
Moisture  
Dew Point 35 °F    
Average Humidity 52    
Maximum Humidity 79    
Minimum Humidity 25    
Precipitation  
Precipitation 0.00 in 0.16 in 2.52 in (1987)
Month to date precipitation 8.06 4.43  
Year to date precipitation 12.08 9.40  
Sea Level Pressure  
Sea Level Pressure 30.26 in    
Wind  
Wind Speed 8 mph (SE)    
Max Wind Speed 18 mph    
Max Gust Speed 24 mph    
Visibility 10 miles    
Events      
T = Trace of Precipitation, MM = Missing Value Source: NWS Daily Summary

Daily Weather History Graph

Daily Weather History Graph

Search for Another Location

Airport or City:

Trip Planner

Search our weather history database for the weather conditions in past years. The results will help you decide how hot, cold, wet, or windy it might be!

Date:

Astronomy

Feb. 26, 2012 Rise Set
Actual Time 6:31 AM CST 5:55 PM CST
Civil Twilight 6:07 AM CST 6:19 PM CST
Nautical Twilight 5:38 AM CST 6:48 PM CST
Astronomical Twilight 5:10 AM CST 7:16 PM CST
Moon 8:46 AM CST (2/26) 10:31 PM CST (2/26)
Length of Visible Light 12h 12m
Length of Day
11h 23m
Waxing Crescent, 21% of the Moon is Illuminated
Feb 26
Waxing Crescent
Feb 29
First Quarter
Mar 8
Full
Mar 14
Last Quarter
Mar 22
New

Hourly Weather History & Observations

Time (CST) Temp. Windchill Dew Point Humidity Pressure Visibility Wind Dir Wind Speed Gust Speed Precip Events Conditions
12:54 AM 50.0 °F - 28.0 °F 43% 30.26 in 10.0 mi ENE 5.8 mph - N/A   Clear
1:54 AM 48.9 °F - 30.0 °F 48% 30.27 in 10.0 mi East 3.5 mph - N/A   Clear
2:54 AM 48.9 °F - 30.9 °F 50% 30.26 in 10.0 mi East 3.5 mph - N/A   Clear
3:54 AM 48.9 °F - 30.9 °F 50% 30.25 in 10.0 mi ESE 8.1 mph - N/A   Clear
4:54 AM 46.0 °F 44.8 °F 32.0 °F 58% 30.26 in 10.0 mi SE 3.5 mph - N/A   Clear
5:54 AM 42.1 °F - 33.1 °F 70% 30.28 in 10.0 mi Calm Calm - N/A   Clear
6:54 AM 39.9 °F - 33.1 °F 77% 30.30 in 10.0 mi Calm Calm - N/A   Clear
7:54 AM 48.9 °F - 34.0 °F 56% 30.33 in 10.0 mi NE 3.5 mph - N/A   Clear
8:54 AM 53.1 °F - 30.0 °F 41% 30.34 in 10.0 mi Calm Calm - N/A   Clear
9:54 AM 57.9 °F - 27.0 °F 31% 30.33 in 10.0 mi ESE 12.7 mph - N/A   Clear
10:54 AM 61.0 °F - 27.0 °F 27% 30.32 in 10.0 mi SSE 13.8 mph - N/A   Clear
11:54 AM 62.1 °F - 27.0 °F 26% 30.30 in 10.0 mi SE 12.7 mph 19.6 mph N/A   Clear
12:54 PM 63.0 °F - 27.0 °F 26% 30.26 in 10.0 mi SE 8.1 mph 18.4 mph N/A   Clear
1:54 PM 66.0 °F - 32.0 °F 28% 30.22 in 10.0 mi SSE 13.8 mph 17.3 mph N/A   Clear
2:54 PM 66.0 °F - 34.0 °F 30% 30.20 in 10.0 mi SSE 12.7 mph 16.1 mph N/A   Clear
3:54 PM 66.0 °F - 39.0 °F 37% 30.19 in 10.0 mi SSE 9.2 mph - N/A   Clear
4:54 PM 64.0 °F - 42.1 °F 45% 30.19 in 10.0 mi South 16.1 mph - N/A   Clear
5:54 PM 60.1 °F - 43.0 °F 53% 30.21 in 10.0 mi South 11.5 mph - N/A   Mostly Cloudy
6:54 PM 59.0 °F - 41.0 °F 51% 30.22 in 10.0 mi SSE 10.4 mph - N/A   Overcast
7:54 PM 57.9 °F - 42.1 °F 56% 30.22 in 10.0 mi SSE 9.2 mph - N/A   Overcast
8:54 PM 57.0 °F - 42.1 °F 57% 30.23 in 10.0 mi SSE 10.4 mph - N/A   Overcast
9:54 PM 57.0 °F - 42.1 °F 57% 30.25 in 10.0 mi SSE 13.8 mph 18.4 mph N/A   Overcast
10:49 PM 55.4 °F - 39.2 °F 54% 30.26 in 10.0 mi North - - N/A   Overcast
10:54 PM 55.9 °F - 39.9 °F 55% 30.25 in 10.0 mi North - - N/A   Overcast
11:35 PM 55.4 °F - 41.0 °F 58% 30.26 in 10.0 mi SE 9.2 mph - N/A   Overcast
11:44 PM 55.4 °F - 41.0 °F 58% 30.26 in 10.0 mi SSE 9.2 mph 20.7 mph N/A   Overcast
11:54 PM 55.0 °F - 42.1 °F 62% 30.26 in 10.0 mi SSE 6.9 mph - N/A   Overcast